Вернуться в каталог

COSMOS 1357

АктивенВоенныеLEO
NORAD 13160·PAYLOAD·🇷🇺 Russia

Запущен May 6, 1982 с Plesetsk Cosmodrome

Loading…

Ближайшие Пролёты (ближайшие 24 часа)

TLE

СвежийSource: Space-Track

Эпоха: Sep 14, 2026, 21:48 UTC

1 13160U 82040A   26257.90840365 -.00000005  00000-0  68973-4 0  9995
2 13160  74.0123 309.1900 0050140 351.8389 194.8536 12.56068076 33990

Отслеживайте COSMOS 1357 в реальном времени с AllMySat

Download on the App Store